Change the Weather History Date:

Tuesday, February 11, 2014

  Actual Average Record
Temperature  
Mean Temperature 12 °F 30 °F  
Max Temperature 22 °F 38 °F 75 °F (1932)
Min Temperature 1 °F 22 °F -12 °F (1979)
Degree Days  
Heating Degree Days 53 35  
Month to date heating degree days 463 390  
Since 1 July heating degree days 3900 3699  
Cooling Degree Days 0 0  
Month to date cooling degree days 0 0  
Year to date cooling degree days 0 0  
Moisture  
Dew Point 3 °F    
Average Humidity 69    
Maximum Humidity 87    
Minimum Humidity 51    
Precipitation  
Precipitation T in 0.09 in 0.98 in (1910)
Month to date precipitation 1.23 0.95  
Year to date precipitation 3.41 3.65  
Snow  
Snow T in 0.30 in 7.30 in (1910)
Month to date snowfall 7.3 4.0  
Since 1 July snowfall 49.6 26.5  
Snow Depth 5.00 in    
Sea Level Pressure  
Sea Level Pressure 30.45 in    
Wind  
Wind Speed 3 mph (NNW)    
Max Wind Speed 10 mph    
Max Gust Speed 13 mph    
Visibility 9 miles    
Events Snow    
T = Trace of Precipitation, MM = Missing Value Source: NWS Daily Summary

Daily Weather History Graph

Daily Weather History Graph

Search for Another Location

Airport or City:

Trip Planner

Search our weather history database for the weather conditions in past years. The results will help you decide how hot, cold, wet, or windy it might be!

Date:

Astronomy

Feb. 11, 2014 Rise Set
Actual Time 7:19 AM EST 5:51 PM EST
Civil Twilight 6:51 AM EST 6:19 PM EST
Nautical Twilight 6:19 AM EST 6:51 PM EST
Astronomical Twilight 5:47 AM EST 7:23 PM EST
Moon 3:10 PM EST (2/11) 4:55 AM EST (2/11)
Length of Visible Light 11h 28m
Length of Day
10h 31m
Waxing Gibbous, 90% of the Moon is Illuminated
Feb 11
Waxing Gibbous
Feb 14
Full
Feb 22
Last Quarter
Mar 1
New
Mar 8
First Quarter

Hourly Weather History & Observations

Time (EST) Temp. Windchill Dew Point Humidity Pressure Visibility Wind Dir Wind Speed Gust Speed Precip Events Conditions
12:40 AM 15.8 °F 3.4 °F 5.0 °F 62% 30.30 in 9.0 mi NW 10.4 mph - 0.00 in Snow Light Snow
12:51 AM 14.0 °F 2.9 °F 5.0 °F 67% 30.38 in 9.0 mi NW 8.1 mph - 0.00 in Snow Light Snow
1:51 AM 10.0 °F 1.8 °F 1.9 °F 70% 30.38 in 10.0 mi West 4.6 mph - 0.00 in   Mostly Cloudy
2:51 AM 9.0 °F 0.6 °F 1.9 °F 73% 30.39 in 9.0 mi WNW 4.6 mph - N/A   Scattered Clouds
3:51 AM 6.1 °F -0.9 °F 1.0 °F 80% 30.39 in 8.0 mi West 3.5 mph - N/A   Scattered Clouds
4:51 AM 6.1 °F -0.9 °F 1.0 °F 80% 30.40 in 7.0 mi West 3.5 mph - N/A   Scattered Clouds
5:51 AM 1.9 °F - -2.9 °F 80% 30.42 in 6.0 mi Calm Calm - N/A   Haze
6:51 AM 1.9 °F - -2.9 °F 80% 30.44 in 6.0 mi Calm Calm - N/A   Scattered Clouds
7:51 AM 3.0 °F - -0.9 °F 84% 30.47 in 6.0 mi Calm Calm - 0.00 in Snow Light Snow
8:51 AM 7.0 °F 0.1 °F 1.9 °F 80% 30.48 in 7.0 mi West 3.5 mph - 0.00 in   Scattered Clouds
9:51 AM 10.9 °F 4.7 °F 5.0 °F 77% 30.49 in 7.0 mi NW 3.5 mph - N/A   Partly Cloudy
10:51 AM 15.1 °F - 6.1 °F 68% 30.49 in 7.0 mi Calm Calm - N/A   Partly Cloudy
11:51 AM 18.0 °F - 7.0 °F 62% 30.48 in 9.0 mi Calm Calm - N/A   Scattered Clouds
12:51 PM 19.9 °F - 7.0 °F 57% 30.46 in 10.0 mi Calm Calm - N/A   Scattered Clouds
1:51 PM 19.9 °F 14.9 °F 6.1 °F 55% 30.45 in 10.0 mi North 3.5 mph - N/A   Mostly Cloudy
2:51 PM 21.0 °F 13.4 °F 6.1 °F 53% 30.44 in 10.0 mi WNW 5.8 mph - N/A   Scattered Clouds
3:51 PM 21.0 °F 14.6 °F 6.1 °F 53% 30.45 in 10.0 mi North 4.6 mph - N/A   Scattered Clouds
4:51 PM 21.0 °F 16.2 °F 6.1 °F 53% 30.46 in 10.0 mi North 3.5 mph - N/A   Scattered Clouds
5:51 PM 19.0 °F 12.3 °F 5.0 °F 54% 30.48 in 10.0 mi North 4.6 mph - N/A   Scattered Clouds
6:51 PM 17.1 °F 8.7 °F 5.0 °F 59% 30.50 in 10.0 mi NNE 5.8 mph - N/A   Scattered Clouds
7:51 PM 16.0 °F 8.8 °F 3.9 °F 59% 30.50 in 10.0 mi North 4.6 mph - N/A   Partly Cloudy
8:51 PM 15.1 °F 9.4 °F 3.9 °F 61% 30.51 in 10.0 mi NE 3.5 mph - N/A   Partly Cloudy
9:51 PM 14.0 °F 8.2 °F 3.0 °F 62% 30.50 in 10.0 mi ENE 3.5 mph - N/A   Clear
10:51 PM 12.0 °F 5.9 °F 3.0 °F 67% 30.49 in 10.0 mi East 3.5 mph - N/A   Clear
11:51 PM 10.9 °F - 1.9 °F 67% 30.48 in 10.0 mi Calm Calm - N/A   Clear